Flight Track Log - Related Links

Times and Time Zones

All times are in EDT time to prevent confusion due to time zone crossing. See the SWA920 flight status page for this flight to view local times or setup timezone preferences in your user account.

Time Position Orientation Groundspeed Altitude Reporting Facility
EDT Latitude Longitude Course Direction KTS MPH feet Rate Location/Type
10:37PM 39.1833 -76.7000 270° West 156 180 1,700  Level Potomac TRACON
10:38PM 39.1500 -76.7500 229° Southwest 221 254 3,900 1,940 Climbing Potomac TRACON
10:41PM 39.0367 -76.5644 128° Southeast 288 331 8,200 2,418 Climbing Washington Center
10:42PM 39.0728 -76.4553 67° East 275 316 12,000 3,300 Climbing Washington Center
10:43PM 39.1500 -76.5485 270° West  Level FlightAware Approximate
10:43PM 39.1133 -76.3381 66° East 299 344 14,800  Level Washington Center
10:44PM 39.1514 -76.1964 71° East 354 407 17,000 2,400 Climbing Washington Center
10:45PM 39.1750 -76.0575 78° East 397 457 19,600 2,650 Climbing Washington Center
10:46PM 39.1964 -75.8969 80° East 440 506 22,300 2,550 Climbing Washington Center
10:47PM 39.2822 -75.7658 50° Northeast 441 507 24,700 2,300 Climbing Washington Center
10:48PM 39.3781 -75.6425 45° Northeast 461 531 26,900 2,050 Climbing Washington Center
10:49PM 39.4761 -75.5164 45° Northeast 480 552 28,800 2,168 Climbing Washington Center
10:50PM 39.5842 -75.3733 46° Northeast 492 566 31,200 1,883 Climbing Washington Center
10:52PM 39.7819 -75.0956 47° Northeast 524 603 34,700 1,714 Climbing New York Center
10:53PM 39.8767 -74.9608 47° Northeast 518 596 36,600 1,150 Climbing New York Center
10:54PM 39.9728 -74.8283 47° Northeast 513 590 37,000 203 Climbing New York Center
10:55PM 40.0736 -74.6825 48° Northeast 500 575 37,000  Level New York Center
10:56PM 40.1678 -74.5492 47° Northeast 495 570 37,000  Level New York Center
10:57PM 40.2531 -74.4206 49° Northeast 507 583 37,000  Level New York Center
10:58PM 40.3386 -74.2836 51° Northeast 507 583 37,000 -1,169 Level New York Center
10:59PM 40.4258 -74.1436 51° Northeast 500 575 34,700 -2,262 Descending New York Center
11:01PM 40.6183 -73.8344 51° Northeast 499 574 29,800 -2,134 Descending Boston Center
11:02PM 40.7033 -73.6967 51° Northeast 487 560 27,800 -2,050 Descending Boston Center
11:03PM 40.7817 -73.5639 52° Northeast 477 549 25,700 -1,900 Descending Boston Center
11:04PM 40.8622 -73.4308 51° Northeast 472 543 24,000 -1,000 Descending Boston Center
11:05PM 40.9444 -73.3194 46° Northeast 449 517 23,700 -500 Descending Boston Center
11:06PM 41.0244 -73.1994 49° Northeast 435 501 23,000 -350 Descending Boston Center
11:07PM 41.1022 -73.0792 49° Northeast 430 495 23,000  Level Boston Center
11:08PM 41.1572 -72.9392 62° Northeast 430 495 23,000  Level Boston Center
11:09PM 41.2142 -72.7906 63° Northeast 430 495 23,000  Level Boston Center
11:10PM 41.2706 -72.6444 63° Northeast 435 501 23,000  Level Boston Center
11:11PM 41.3292 -72.4925 63° Northeast 440 506 23,000  Level Boston Center
11:12PM 41.3875 -72.3322 64° Northeast 445 512 23,000  Level Boston Center
11:13PM 41.4394 -72.2019 62° Northeast 445 512 23,000  Level Boston Center
11:14PM 41.4953 -72.0522 63° Northeast 445 512 23,000 -300 Level Boston Center
11:15PM 41.5489 -71.8992 65° Northeast 445 512 22,400 -1,350 Descending Boston Center
11:16PM 41.6083 -71.7517 62° Northeast 445 512 20,300 -2,250 Descending Boston Center
11:17PM 41.6658 -71.5925 64° Northeast 445 512 17,900 -2,100 Descending Boston Center
11:18PM 41.7106 -71.4667 65° Northeast 421 484 16,100 -1,900 Descending Boston Center
11:19PM 41.7717 -71.3183 61° Northeast 409 471 14,100 -1,900 Descending Boston Center
11:20PM 41.8206 -71.2061 60° Northeast 397 457 12,300 -1,537 Descending Boston Center
11:21PM 41.8833 -71.0667 59° Northeast 383 441 11,000 -518 Descending KA90
11:22PM 41.9500 -70.9000 62° Northeast 364 419 11,100 -50 Climbing KA90
11:23PM 41.9744 -70.8456 59° Northeast 366 421 10,900 -713 Descending Boston Center
11:24PM 42.0311 -70.7381 55° Northeast 360 414 9,900 -1,000 Descending Boston Center
11:25PM 42.1008 -70.6606 40° Northeast 342 394 8,900 -800 Descending Boston Center
11:26PM 42.1711 -70.6108 28° Northeast 301 346 8,300 -1,250 Descending Boston Center
11:27PM 42.2389 -70.5583 30° Northeast 284 327 6,400 -1,550 Descending Boston Center
11:28PM 42.3072 -70.5394 12° North 257 296 5,200 -1,100 Descending Boston Center
11:29PM 42.3725 -70.5656 344° North 228 262 4,200 -700 Descending Boston Center
11:30PM 42.4044 -70.6153 311° West 192 221 3,800 -600 Descending Boston Center
11:31PM 42.4158 -70.6683 286° West 160 184 3,000 -218 Descending Boston Center
11:33PM 42.4000 -70.7833 259° West 132 152 3,100 -187 Climbing KA90
11:34PM 42.3833 -70.8333 246° West 133 153 2,400 -650 Descending KA90
11:35PM 42.3833 -70.8667 270° West 131 151 1,800 -632 Descending KA90
11:36PM 42.3667 -70.9167 246° West 126 145 1,200 -684 Descending KA90
11:37PM 42.3667 -70.9667 270° West 129 148 500 -700 Descending KA90

Login

Don't have an account? Register now (free) for customized features, flight alerts, and more!